Location: G�migny
(47.9646°N, 1.6950°E)
Time: 14:08:30
(UTC+00:00)

ADEOS Rocket - Pass Details

Date: 23 October 2019
Orbit: 859 x 1306 km, 98.7° (Epoch: 11 November)

Event Time Altitude Azimuth Distance (km) Brightness Sun altitude
Rises 19:48:14 0° 14° (NNE) 4,290 6.4 -30.2°
Reaches altitude 10° 19:51:00 10° 15° (NNE) 3,292 5.8 -30.6°
Maximum altitude 19:58:41 88° 105° (ESE) 1,226 3.3 -31.8°
Enters shadow 19:59:58 65° 190° (S) 1,314 3.5 -32.0°
Exits shadow 20:06:26 - 196° (SSW) 3,286 5.7 -33.0°
Sets 20:08:08 0° 196° (SSW) 3,912 6.1 -33.3°
